Hourly Data Report for June 08, 2021

WINNIPEG THE FORKS
MANITOBA
Current Station Operator: ECCC - MSC

49°53'18.008" N
97°07'46.007" W
230.00 m
5023262
71579
XWN

Download Data

Hourly Data (June 2021)
Hourly Data Report for June 8, 2021
TIME
LST
Temp Definition
°C
Dew Point Definition
°C
Rel Hum Definition
%
Precip. Amount Definition
mm

Wind Dir Definition
10's deg

Wind Spd Definition
km/h
Visibility Definition
km
Stn Press Definition
kPa
Hmdx Definition


Wind Chill Definition


Weather Definition


00:00 18.4 8.7 53 0.0 3 6   98.42     LegendNANA
01:00 18.2 8.8 54 0.0 5 5   98.47     LegendNANA
02:00 17.4 9.0 58 0.0 4 4   98.52     LegendNANA
03:00 16.5 9.1 61 0.0 3 4   98.55     LegendNANA
04:00 16.1 9.1 63 0.0 3 3   98.59     LegendNANA
05:00 16.3 9.3 63 0.0 5 3   98.62     LegendNANA
06:00 17.9 9.4 57 0.0 6 8   98.67     LegendNANA
07:00 19.9 9.8 52 0.0 5 5   98.73     LegendNANA
08:00 22.3 10.9 48 0.0 8 6   98.73     LegendNANA
09:00 23.7 10.7 44 0.0 6 7   98.77 25   LegendNANA
10:00 25.4 11.2 41 0.0 8 4   98.74 27   LegendNANA
11:00 27.0 9.3 33 0.0 6 8   98.76 28   LegendNANA
12:00 28.5 9.2 30 0.0 7 6   98.79 29   LegendNANA
13:00 28.8 10.1 31 0.0 8 5   98.81 30   LegendNANA
14:00 29.2 10.3 31 0.0 7 6   98.81 31   LegendNANA
15:00 29.6 9.6 29 0.0 5 6   98.81 31   LegendNANA
16:00 29.4 9.6 29 0.0 7 9   98.82 30   LegendNANA
17:00 29.1 9.6 30 0.0 7 7   98.80 30   LegendNANA
18:00 28.9 9.3 30 0.0 8 8   98.82 30   LegendNANA
19:00 28.1 9.8 32 0.0 7 8   98.77 29   LegendNANA
20:00 26.6 11.4 39 0.0 6 7   98.75 29   LegendNANA
21:00 25.5 11.3 41 0.0 6 6   98.80 27   LegendNANA
22:00 23.9 11.6 46 0.0 6 6   98.80 26   LegendNANA
23:00 23.7 11.1 45 0.0 6 6   98.74 26   LegendNANA

Notes on Data Quality.

Legend

  • E = Estimated
  • M = Missing
  • NA = Not Available*
  • [empty] = Indicates an unobserved value
Date modified: